STARLINK-1629 (46150 NORAD) Tracking and Keplerian Element Data

This shows tracking and keplerian element data for the satellite.

Feedback or suggestion? Click here.




ElementValue
Catalog46150
NameSTARLINK-1629
Epoch Orbit184
Epoch Day331.91668981
Epoch Year2020
RAAN335.184
Inclination53.0056
Eccentricity0.0001423
Argument of Perigee71.3548
Mean Anonmoly213.8127
Mean Motion15.0554821
Decay Rate0.00059177
L11 46150U 20057AK 20331.91668981 .00059177 00000-0 40501-2 0 9998
L22 46150 53.0056 335.1840 0001423 71.3548 213.8127 15.05548210 1847

Live tracking and technical data element details for STARLINK-1629 (NORAD 46150). STARLINK-1629 can be tracked NOW for your location showing map with azimuth and elevation plus other details from your city location.

Track the satellite on the map from your city or location and see movement details for azimuth, elevation, latitude, longitude, range, height, and movement on the map or in text.







IsCatalogInMostPopularTable: catalog: 46150, numindb: 17
Update: records affected: 1



GetName: 46150 STARLINK-1629

Hit Count: updated at: Fri, 27 Nov 2020 14:07:27 GMT